[[{"header":{"parameterUnit":"m.s-1","parameterCategory":2,"la1":30.2991,"la2":30.254,"lo1":-89.0895,"lo2":-89.0444,"dy":0.0017,"dx":0.0017,"nx":28,"ny":28,"refTime":"2024-12-01T03:00:00:Z","depth":"0","parameterNumber":2,"parameterNumberName":"U-component_of_CURRENTS"},"data":[0,0,0,0,0,0,0,0,0,0,0,0,0,0,0,0,0,0,0,0,0,0,0,0,0,0,0,0,0,0,0,0,0,0,0,0,0,0,0,0,0,0,0,0,0,0,0,0,0,0,0,0,0,0,0,0,0,0,-0.1935,-0.1936,0,-0.2043,-0.2044,-0.2044,-0.202,-0.2019,-0.2018,-0.2016,-0.1971,-0.1971,-0.1972,0,0,0,0,0,0,0,0,0,0,0,0,0,-0.168,-0.1684,-0.1934,-0.1936,-0.1938,-0.2043,-0.2044,-0.2045,-0.2021,-0.2019,-0.2017,-0.2016,-0.1971,-0.1971,-0.1972,0,0,0,0,0,0,0,0,0,0,0,0,0,-0.1784,-0.1686,-0.1934,-0.1944,-0.1946,-0.2043,-0.2044,-0.2045,-0.2021,-0.2019,-0.2017,-0.2015,-0.1971,-0.1971,-0.1972,-0.2017,0,0,-0.1972,-0.1972,0,0,0,0,0,0,0,0,-0.1778,-0.1792,-0.194,-0.1943,-0.1946,-0.2022,-0.1938,-0.203,-0.2022,-0.1986,-0.2016,-0.2014,-0.198,-0.1979,-0.1997,-0.2014,-0.2012,-0.1972,-0.1972,-0.1973,-0.1973,0,0,0,0,0,0,0,-0.1771,-0.1787,-0.1971,-0.1943,-0.1946,-0.1934,-0.1946,-0.1955,-0.1986,-0.1989,-0.1989,-0.2012,-0.1979,-0.1997,-0.1996,-0.2012,-0.1972,-0.1973,-0.1973,-0.1973,-0.2049,-0.2051,0,0,0,0,0,0,-0.1775,-0.1781,-0.1967,-0.1975,-0.1862,-0.1941,-0.1954,-0.1994,-0.1989,-0.1989,-0.2014,-0.2011,-0.1998,-0.1996,-0.1994,-0.2036,-0.1973,-0.1973,-0.1973,-0.2047,-0.205,-0.2052,0,0,0,0,0,0,-0.177,-0.1791,-0.1963,-0.1884,-0.1905,-0.1949,-0.1994,-0.1998,-0.2012,-0.2011,-0.2006,-0.2024,-0.1996,-0.1994,-0.2011,-0.2033,-0.1973,-0.1973,-0.2045,-0.2048,-0.2051,-0.2125,0,0,0,0,0,0,-0.1762,-0.1789,-0.1812,-0.1885,-0.1911,-0.202,-0.1997,-0.2002,-0.2033,-0.2029,-0.2018,-0.2012,-0.1994,-0.2011,-0.2011,-0.2033,-0.1973,-0.2043,-0.2047,-0.205,-0.212,-0.213,-0.2139,0,0,0,0,0,-0.1753,-0.1796,-0.1813,-0.1835,-0.1944,-0.2022,-0.2033,-0.205,-0.2036,-0.2052,-0.2048,-0.2012,-0.2033,-0.2013,-0.2013,-0.2035,-0.2041,-0.2045,-0.205,-0.2116,-0.2128,-0.2138,0,0,0,0,0,0,-0.1687,-0.1801,-0.1819,-0.1892,-0.1952,-0.202,-0.204,-0.2058,-0.2073,-0.2059,-0.2043,-0.2039,-0.2062,-0.2046,-0.2024,-0.2069,-0.2029,-0.2034,-0.208,-0.2091,-0.21,-0.2097,-0.1973,0,0,0,0,0,-0.1691,-0.1753,-0.1848,-0.19,-0.1934,-0.1988,-0.2019,-0.2039,-0.2071,-0.2075,-0.2075,-0.2072,-0.2085,-0.2083,-0.209,-0.2119,-0.2094,-0.2132,-0.2141,-0.2149,-0.2148,-0.2151,-0.216,-0.2066,-0.2066,-0.2066,0,0,-0.1675,-0.1749,-0.1779,-0.189,-0.1933,-0.2,-0.1998,-0.2054,-0.2099,-0.2067,-0.2108,-0.2106,-0.2102,-0.2133,-0.2141,-0.2118,-0.2163,-0.2154,-0.2161,-0.2156,-0.2156,-0.2165,-0.2173,-0.2069,-0.2068,-0.2068,0,0,-0.1679,-0.1746,-0.1797,-0.1865,-0.1954,-0.2,-0.202,-0.2096,-0.2113,-0.2166,-0.2154,-0.2175,-0.2189,-0.2202,-0.2206,-0.2274,-0.2215,-0.2264,-0.2304,-0.2308,-0.2315,-0.2321,-0.2297,-0.2301,-0.2265,-0.2265,-0.2265,0,-0.1644,-0.1749,-0.1817,-0.1892,-0.1954,-0.2004,-0.2071,-0.2111,-0.2178,-0.2199,-0.218,-0.2227,-0.2228,-0.2271,-0.2295,-0.2295,-0.2267,-0.2261,-0.2318,-0.2323,-0.2328,-0.2303,-0.2305,-0.2269,-0.2269,-0.2268,-0.2268,0,-0.1696,-0.1784,-0.1821,-0.1941,-0.2007,-0.2077,-0.2159,-0.2201,-0.2226,-0.2262,-0.2306,-0.2318,-0.2337,-0.235,-0.2343,-0.2384,-0.2343,-0.2331,-0.2286,-0.2342,-0.2312,-0.2313,-0.2275,-0.2274,-0.2272,-0.2271,0,0,-0.1612,-0.1816,-0.183,-0.1901,-0.2049,-0.2102,-0.2188,-0.2277,-0.2309,-0.2357,-0.2391,-0.2442,-0.243,-0.2436,-0.243,-0.244,-0.2462,-0.2397,-0.2396,-0.2366,-0.2438,-0.2271,-0.2256,-0.2447,-0.2448,-0.2449,-0.2401,0,-0.1629,-0.1769,-0.1879,-0.2003,-0.2085,-0.2183,-0.2258,-0.2336,-0.2377,-0.2415,-0.2438,-0.2462,-0.2467,-0.2463,-0.2483,-0.2465,-0.2469,-0.2474,-0.2394,-0.2392,-0.223,-0.2253,-0.2141,-0.2076,-0.2402,-0.2402,-0.2402,0,-0.1646,-0.1751,-0.1877,-0.2056,-0.2096,-0.2171,-0.2285,-0.2359,-0.2432,-0.2457,-0.2489,-0.249,-0.2528,-0.2505,-0.2518,-0.2511,-0.2483,-0.2465,-0.2463,-0.2278,-0.2227,-0.2075,-0.2066,-0.2061,-0.2403,-0.2403,-0.2403,0,-0.1552,-0.1749,-0.1847,-0.1915,-0.2111,-0.217,-0.2255,-0.2358,-0.2407,-0.2464,-0.2474,-0.2521,-0.2517,-0.2518,-0.2476,-0.25,-0.2442,-0.2476,-0.2301,-0.2288,-0.2162,-0.2135,-0.2129,-0.2473,-0.2473,-0.2473,-0.2474,0,-0.1548,-0.162,-0.1809,-0.1868,-0.1969,-0.2116,-0.2201,-0.2282,-0.2372,-0.2413,-0.2471,-0.2475,-0.2516,-0.2481,-0.2466,-0.2354,-0.2435,-0.2299,-0.2264,-0.2182,-0.2159,-0.2121,-0.2159,-0.2472,-0.2472,-0.2472,-0.2473,0,-0.1439,-0.1568,-0.1685,-0.188,-0.1935,-0.1998,-0.2171,-0.2218,-0.2313,-0.2356,-0.2369,-0.2434,-0.2391,-0.2373,-0.235,-0.2308,-0.2188,-0.2174,-0.2051,-0.2001,-0.1845,-0.189,-0.1833,-0.178,-0.2012,-0.2008,-0.2004,0,-0.1403,-0.1454,-0.1648,-0.1709,-0.1802,-0.1921,-0.1998,-0.2156,-0.221,-0.2317,-0.2316,-0.2299,-0.2242,-0.2121,-0.204,-0.1937,-0.1993,-0.179,-0.183,-0.1801,-0.183,-0.1887,-0.1854,-0.1708,-0.1702,-0.1698,-0.1694,0,-0.1324,-0.1382,-0.1474,-0.1602,-0.1699,-0.1806,-0.1928,-0.1968,-0.2132,-0.2162,-0.2176,-0.2131,-0.2005,-0.1837,-0.168,-0.1631,-0.1743,-0.1685,-0.1712,-0.1623,-0.1633,-0.1573,-0.177,-0.1651,-0.1655,-0.1658,-0.1661,-0.1662,-0.1235,-0.1266,-0.138,-0.1492,-0.159,-0.1669,-0.1707,-0.1815,-0.187,-0.1886,-0.1949,-0.1814,-0.171,-0.1465,-0.1398,-0.1272,-0.1396,-0.1279,-0.1347,-0.1416,-0.1329,-0.1392,-0.1191,-0.1192,-0.1193,-0.1195,-0.1196,0,-0.1139,-0.1181,-0.1269,-0.1389,-0.1434,-0.1534,-0.1637,-0.1639,-0.1642,-0.1623,-0.1577,-0.141,-0.1233,-0.1165,-0.1049,-0.0985,-0.1013,-0.0989,-0.1102,-0.1093,-0.1187,-0.1134,-0.084,-0.084,-0.084,-0.084,-0.084,-0.084,-0.1095,-0.1111,-0.1164,-0.1208,-0.1275,-0.1285,-0.1313,-0.1311,-0.1287,-0.1145,-0.1027,-0.0943,-0.0958,-0.1058,-0.0973,-0.0913,-0.0952,-0.0884,-0.0952,-0.1085,-0.112,-0.1154,-0.1114,-0.0821,-0.0821,-0.0812,-0.0812,-0.0812]},{"header":{"parameterUnit":"m.s-1","parameterCategory":2,"la1":30.2991,"la2":30.254,"lo1":-89.0895,"lo2":-89.0444,"dy":0.0017,"dx":0.0017,"nx":28,"ny":28,"refTime":"2024-12-01T03:00:00:Z","depth":"0","parameterNumber":3,"parameterNumberName":"V-component_of_CURRENTS"},"data":[0,0,0,0,0,0,0,0,0,0,0,0,0,0,0,0,0,0,0,0,0,0,0,0,0,0,0,0,0,0,0,0,0,0,0,0,0,0,0,0,0,0,0,0,0,0,0,0,0,0,0,0,0,0,0,0,0,0,-0.0643,-0.0641,0,-0.0448,-0.0446,-0.0444,-0.0349,-0.0348,-0.0348,-0.0348,-0.02,-0.0196,-0.0193,0,0,0,0,0,0,0,0,0,0,0,0,0,-0.0875,-0.0872,-0.0643,-0.064,-0.0638,-0.0449,-0.0446,-0.0444,-0.0349,-0.0348,-0.0348,-0.0348,-0.0201,-0.0197,-0.0193,0,0,0,0,0,0,0,0,0,0,0,0,0,-0.0741,-0.0871,-0.0644,-0.0565,-0.0556,-0.0449,-0.0446,-0.0443,-0.0349,-0.0348,-0.0348,-0.0347,-0.0203,-0.0197,-0.0192,-0.0167,0,0,-0.0175,-0.0173,0,0,0,0,0,0,0,0,-0.0748,-0.0733,-0.0579,-0.057,-0.0559,-0.0419,-0.0473,-0.0352,-0.0349,-0.0431,-0.0348,-0.0347,-0.0276,-0.0264,-0.0233,-0.016,-0.0154,-0.0175,-0.0171,-0.0169,-0.0167,0,0,0,0,0,0,0,-0.0758,-0.074,-0.057,-0.0576,-0.0564,-0.0519,-0.05,-0.045,-0.0362,-0.0424,-0.0416,-0.0388,-0.0271,-0.0238,-0.0229,-0.0152,-0.0175,-0.017,-0.0167,-0.0164,-0.0041,-0.0041,0,0,0,0,0,0,-0.0778,-0.0749,-0.0576,-0.0563,-0.0651,-0.0515,-0.0495,-0.0468,-0.0361,-0.0343,-0.0389,-0.0385,-0.0248,-0.0235,-0.0223,-0.02,-0.0169,-0.0164,-0.0161,-0.0041,-0.0041,-0.0041,0,0,0,0,0,0,-0.0784,-0.0764,-0.0583,-0.0649,-0.0622,-0.0512,-0.0482,-0.0464,-0.0429,-0.0333,-0.0317,-0.0373,-0.0247,-0.0231,-0.0175,-0.0193,-0.0161,-0.0156,-0.0041,-0.0041,-0.0041,-0.0145,0,0,0,0,0,0,-0.0791,-0.0768,-0.0765,-0.0651,-0.0619,-0.0532,-0.0482,-0.046,-0.0411,-0.0404,-0.0314,-0.03,-0.0245,-0.0184,-0.017,-0.0185,-0.0152,-0.0041,-0.0041,-0.0041,-0.0142,-0.0149,-0.0155,0,0,0,0,0,-0.08,-0.0802,-0.0766,-0.0745,-0.0616,-0.0532,-0.0513,-0.0435,-0.0412,-0.0402,-0.0336,-0.0302,-0.0174,-0.0179,-0.0163,-0.0177,-0.0041,-0.0041,-0.0041,-0.0139,-0.0147,-0.0155,0,0,0,0,0,0,-0.0901,-0.0788,-0.0747,-0.0714,-0.0633,-0.0515,-0.0498,-0.0443,-0.0382,-0.0378,-0.0296,-0.0277,-0.0235,-0.0188,-0.0196,-0.014,-0.0105,-0.0102,-0.0185,-0.0192,-0.0199,-0.0227,-0.0148,0,0,0,0,0,-0.0921,-0.0894,-0.0776,-0.0752,-0.0715,-0.061,-0.0569,-0.0512,-0.0435,-0.0407,-0.0341,-0.0276,-0.0222,-0.0194,-0.0137,-0.0106,-0.0065,-0.0105,-0.0111,-0.0117,-0.0128,-0.0113,-0.012,-0.0041,-0.0041,-0.0041,0,0,-0.0955,-0.0887,-0.0873,-0.0772,-0.0705,-0.0658,-0.0586,-0.0528,-0.0495,-0.0403,-0.0355,-0.0295,-0.0217,-0.0179,-0.0157,-0.0143,-0.0107,-0.0117,-0.0123,-0.013,-0.0114,-0.0122,-0.0129,-0.0041,-0.0041,-0.0041,0,0,-0.1002,-0.0947,-0.0935,-0.0875,-0.0775,-0.0706,-0.0694,-0.0581,-0.054,-0.0477,-0.041,-0.0362,-0.027,-0.0224,-0.0188,-0.0196,-0.0141,-0.0179,-0.0238,-0.0224,-0.0231,-0.0237,-0.0156,-0.0154,-0.0186,-0.0186,-0.0186,0,-0.1049,-0.1007,-0.0922,-0.0889,-0.0849,-0.0734,-0.0713,-0.0651,-0.0537,-0.0515,-0.0479,-0.036,-0.0294,-0.0257,-0.0253,-0.0215,-0.0177,-0.0219,-0.0236,-0.0241,-0.0246,-0.0162,-0.0158,-0.0191,-0.0191,-0.019,-0.019,0,-0.1078,-0.1042,-0.1033,-0.0953,-0.0905,-0.087,-0.0767,-0.0725,-0.0662,-0.0598,-0.0545,-0.0453,-0.0388,-0.036,-0.0303,-0.0302,-0.0252,-0.0248,-0.0227,-0.0261,-0.0168,-0.0163,-0.0198,-0.0197,-0.0195,-0.0194,0,0,-0.1177,-0.1076,-0.1071,-0.1047,-0.0939,-0.0902,-0.0857,-0.0784,-0.0771,-0.0675,-0.0658,-0.0559,-0.0515,-0.0472,-0.0405,-0.0385,-0.0358,-0.0336,-0.0333,-0.0272,-0.0283,-0.0192,-0.0176,-0.0372,-0.0373,-0.0373,-0.0193,0,-0.1221,-0.1192,-0.1126,-0.1103,-0.1074,-0.0979,-0.0949,-0.0877,-0.0811,-0.0768,-0.0681,-0.0637,-0.0556,-0.0536,-0.0502,-0.0398,-0.0356,-0.0404,-0.0244,-0.0238,-0.0169,-0.0172,-0.0123,0.0045,-0.0187,-0.0186,-0.0185,0,-0.1266,-0.1234,-0.1228,-0.1165,-0.1149,-0.1128,-0.1075,-0.1033,-0.0948,-0.09,-0.0844,-0.0769,-0.0696,-0.0642,-0.0489,-0.0527,-0.0414,-0.0332,-0.0323,-0.0205,-0.0139,0.0036,0.0064,0.0207,-0.0176,-0.0177,-0.0178,0,-0.1363,-0.1307,-0.1313,-0.129,-0.1204,-0.1201,-0.116,-0.1084,-0.1064,-0.0995,-0.0976,-0.0876,-0.0805,-0.07,-0.0483,-0.0506,-0.0303,-0.0314,-0.0115,-0.0104,-0.0012,0.0007,0.0153,-0.0225,-0.0226,-0.0226,-0.0227,0,-0.1429,-0.1427,-0.1364,-0.1361,-0.1377,-0.1293,-0.1308,-0.1248,-0.1192,-0.1174,-0.1063,-0.1005,-0.0824,-0.0668,-0.0513,-0.0264,-0.0316,-0.0116,-0.0066,-0.0039,-0.0025,0.0144,0.0189,-0.0219,-0.0221,-0.0222,-0.0223,0,-0.1518,-0.1478,-0.1476,-0.1423,-0.1416,-0.1429,-0.1392,-0.1399,-0.133,-0.1305,-0.129,-0.1093,-0.0864,-0.0647,-0.0409,-0.027,0.0036,0.0029,0.0093,0.0146,0.0417,0.0453,0.0661,0.076,0.0241,0.0244,0.0247,0,-0.1558,-0.1568,-0.1541,-0.1554,-0.1534,-0.154,-0.1542,-0.1476,-0.1475,-0.1339,-0.1328,-0.1093,-0.0872,-0.0451,-0.0177,0.0129,0.0224,0.0335,0.0281,0.045,0.0528,0.0545,0.0613,0.0392,0.0396,0.0399,0.0401,0,-0.1626,-0.1621,-0.1612,-0.1649,-0.1665,-0.1679,-0.1673,-0.1691,-0.1602,-0.152,-0.1327,-0.1134,-0.0687,-0.0276,0.0123,0.0289,0.0439,0.0404,0.054,0.0628,0.0694,0.0808,0.0303,0.0428,0.0425,0.0423,0.0422,0.0421,-0.1673,-0.169,-0.1694,-0.1732,-0.1758,-0.1792,-0.1801,-0.1752,-0.1691,-0.1491,-0.1302,-0.0877,-0.0381,0.0212,0.039,0.0758,0.0695,0.085,0.0881,0.0885,0.0967,0.0554,0.0745,0.0744,0.0744,0.0743,0.0742,0,-0.1715,-0.1734,-0.1777,-0.1809,-0.186,-0.1851,-0.1865,-0.1809,-0.1694,-0.137,-0.1086,-0.0359,0.0129,0.0557,0.1024,0.1214,0.1229,0.1304,0.1322,0.1367,0.0979,0.0971,0.1266,0.1266,0.1266,0.1266,0.1266,0.1265,-0.1735,-0.1782,-0.1806,-0.1896,-0.1917,-0.195,-0.1949,-0.178,-0.1536,-0.0963,-0.0436,-0.0016,0.0536,0.116,0.157,0.1609,0.176,0.1753,0.1835,0.1542,0.15,0.1461,0.1464,0.1858,0.1859,0.2214,0.2218,0.222]}],[{"header":{"parameterUnit":"m.s-1","parameterCategory":2,"la1":30.2991,"la2":30.254,"lo1":-89.0895,"lo2":-89.0444,"dy":0.0017,"dx":0.0017,"nx":28,"ny":28,"refTime":"2024-12-01T03:00:00:Z","depth":"2","parameterNumber":2,"parameterNumberName":"U-component_of_CURRENTS"},"data":[0,0,0,0,0,0,0,0,0,0,0,0,0,0,0,0,0,0,0,0,0,0,0,0,0,0,0,0,0,0,0,0,0,0,0,0,0,0,0,0,0,0,0,0,0,0,0,0,0,0,0,0,0,0,0,0,0,0,-0.1601,-0.1603,0,-0.1706,-0.1706,-0.1706,-0.1715,-0.1715,-0.1715,-0.1715,-0.1721,-0.1721,-0.1721,0,0,0,0,0,0,0,0,0,0,0,0,0,-0.1522,-0.1521,-0.1601,-0.1604,-0.1606,-0.1706,-0.1706,-0.1706,-0.1715,-0.1715,-0.1715,-0.1715,-0.1721,-0.1721,-0.1721,0,0,0,0,0,0,0,0,0,0,0,0,0,-0.1571,-0.1521,-0.1601,-0.1632,-0.1637,-0.1706,-0.1706,-0.1706,-0.1715,-0.1715,-0.1715,-0.1715,-0.1721,-0.1721,-0.1721,-0.1718,0,0,-0.1722,-0.1722,0,0,0,0,0,0,0,0,-0.1568,-0.1572,-0.1625,-0.1631,-0.1636,-0.1709,-0.1681,-0.171,-0.1715,-0.1671,-0.1715,-0.1715,-0.1717,-0.1717,-0.1719,-0.1719,-0.1719,-0.1722,-0.1722,-0.1722,-0.1722,0,0,0,0,0,0,0,-0.1564,-0.1569,-0.1629,-0.1628,-0.1635,-0.1682,-0.1686,-0.1687,-0.1679,-0.1675,-0.1679,-0.1712,-0.1717,-0.1718,-0.1719,-0.1719,-0.1722,-0.1722,-0.1722,-0.1722,-0.1754,-0.1755,0,0,0,0,0,0,-0.1573,-0.1564,-0.1626,-0.1633,-0.1617,-0.1683,-0.1688,-0.1674,-0.1681,-0.1688,-0.1712,-0.1713,-0.1718,-0.1719,-0.1719,-0.1768,-0.1722,-0.1722,-0.1722,-0.1754,-0.1755,-0.1756,0,0,0,0,0,0,-0.1569,-0.1575,-0.1622,-0.1615,-0.1626,-0.1685,-0.167,-0.1677,-0.1686,-0.1714,-0.1715,-0.1717,-0.1718,-0.1719,-0.1709,-0.1766,-0.1722,-0.1722,-0.1753,-0.1754,-0.1755,-0.1832,0,0,0,0,0,0,-0.1566,-0.1572,-0.1585,-0.1614,-0.1627,-0.1662,-0.1672,-0.1679,-0.1712,-0.1713,-0.1718,-0.1718,-0.1719,-0.1709,-0.1709,-0.1766,-0.1722,-0.1752,-0.1753,-0.1755,-0.1829,-0.1836,-0.1842,0,0,0,0,0,-0.1562,-0.1571,-0.1583,-0.1594,-0.1634,-0.1664,-0.1673,-0.1708,-0.1713,-0.1714,-0.1708,-0.1718,-0.1721,-0.1708,-0.1709,-0.1767,-0.1751,-0.1753,-0.1755,-0.1826,-0.1835,-0.1842,0,0,0,0,0,0,-0.1551,-0.1576,-0.1589,-0.1607,-0.1639,-0.1671,-0.1692,-0.171,-0.1708,-0.1708,-0.1709,-0.1709,-0.1729,-0.1722,-0.1709,-0.1779,-0.1746,-0.1748,-0.18,-0.1808,-0.1815,-0.1803,-0.1722,0,0,0,0,0,-0.1556,-0.1558,-0.1595,-0.1612,-0.1621,-0.1653,-0.1679,-0.17,-0.1707,-0.1707,-0.1718,-0.1726,-0.1737,-0.1748,-0.175,-0.1776,-0.1752,-0.1818,-0.1825,-0.1831,-0.1819,-0.1817,-0.1823,-0.1762,-0.1762,-0.1762,0,0,-0.1563,-0.1578,-0.1584,-0.1611,-0.1628,-0.1661,-0.1663,-0.1695,-0.1732,-0.1707,-0.1742,-0.1741,-0.1743,-0.1777,-0.1789,-0.1781,-0.1838,-0.1833,-0.1838,-0.1823,-0.182,-0.1826,-0.1831,-0.1763,-0.1763,-0.1762,0,0,-0.1572,-0.1575,-0.1582,-0.161,-0.1655,-0.1674,-0.1683,-0.1718,-0.1734,-0.1762,-0.1765,-0.1786,-0.1802,-0.1828,-0.1839,-0.1879,-0.1865,-0.1895,-0.1934,-0.1934,-0.1938,-0.1942,-0.193,-0.1932,-0.1911,-0.1911,-0.1911,0,-0.1594,-0.1596,-0.1596,-0.1622,-0.1651,-0.1677,-0.1701,-0.1733,-0.1771,-0.1782,-0.178,-0.1815,-0.1832,-0.1875,-0.1902,-0.1901,-0.1879,-0.1909,-0.1943,-0.1946,-0.1949,-0.1935,-0.1936,-0.1915,-0.1914,-0.1914,-0.1913,0,-0.1611,-0.1631,-0.1634,-0.1666,-0.1688,-0.1714,-0.1756,-0.1794,-0.1816,-0.1843,-0.1875,-0.1887,-0.1904,-0.194,-0.1937,-0.1984,-0.1955,-0.1945,-0.1924,-0.196,-0.1943,-0.1943,-0.192,-0.1919,-0.1918,-0.1917,0,0,-0.1606,-0.1641,-0.1648,-0.1663,-0.1712,-0.1725,-0.1787,-0.183,-0.1873,-0.1907,-0.1944,-0.1985,-0.1978,-0.1987,-0.2002,-0.2023,-0.205,-0.1999,-0.1997,-0.1989,-0.2031,-0.1947,-0.1939,-0.204,-0.204,-0.2041,-0.2014,0,-0.1623,-0.1672,-0.1679,-0.1722,-0.174,-0.1778,-0.1829,-0.1879,-0.1915,-0.1967,-0.1984,-0.2018,-0.2001,-0.2024,-0.2035,-0.2047,-0.2051,-0.2056,-0.1993,-0.1991,-0.1915,-0.1936,-0.1782,-0.1739,-0.2014,-0.2014,-0.2014,0,-0.1632,-0.1664,-0.1696,-0.174,-0.1748,-0.1781,-0.1843,-0.1894,-0.1971,-0.2003,-0.2027,-0.2037,-0.2076,-0.2059,-0.2058,-0.2056,-0.2039,-0.2042,-0.204,-0.1929,-0.1906,-0.1745,-0.1728,-0.2014,-0.2014,-0.2014,-0.2014,0,-0.1605,-0.1668,-0.1683,-0.1704,-0.1765,-0.1783,-0.1822,-0.1896,-0.1932,-0.2021,-0.2052,-0.2076,-0.209,-0.2077,-0.2061,-0.2065,-0.2045,-0.2053,-0.1952,-0.1946,-0.1783,-0.1761,-0.2034,-0.2034,-0.2034,-0.2034,-0.2034,0,-0.1602,-0.1625,-0.1676,-0.1685,-0.172,-0.176,-0.1794,-0.187,-0.1945,-0.1976,-0.2044,-0.2064,-0.2092,-0.2079,-0.2065,-0.199,-0.2034,-0.1948,-0.1932,-0.1806,-0.1788,-0.1996,-0.1992,-0.2033,-0.2034,-0.2034,-0.2034,0,-0.1562,-0.16,-0.1618,-0.1674,-0.1695,-0.1712,-0.1769,-0.181,-0.1896,-0.1945,-0.1972,-0.2048,-0.2033,-0.2033,-0.2025,-0.1978,-0.1945,-0.1903,-0.1747,-0.1712,-0.1849,-0.185,-0.1804,-0.1801,-0.1798,-0.1796,-0.1794,0,-0.1553,-0.155,-0.159,-0.1587,-0.1603,-0.1639,-0.1674,-0.1779,-0.1814,-0.1912,-0.1929,-0.1955,-0.1928,-0.1882,-0.1829,-0.177,-0.1848,-0.1606,-0.1591,-0.1836,-0.1825,-0.183,-0.1834,-0.1413,-0.1408,-0.1404,-0.1401,0,-0.151,-0.1505,-0.1511,-0.1511,-0.1526,-0.1562,-0.1614,-0.1641,-0.1748,-0.1784,-0.1808,-0.1796,-0.1757,-0.1623,-0.1563,-0.1517,-0.161,-0.1522,-0.181,-0.1495,-0.1465,-0.1456,-0.1473,-0.1366,-0.1369,-0.1372,-0.1374,-0.1375,-0.1472,-0.1447,-0.1424,-0.1417,-0.1443,-0.1465,-0.1443,-0.1504,-0.153,-0.155,-0.1616,-0.1544,-0.1537,-0.135,-0.1278,-0.1237,-0.1356,-0.131,-0.1323,-0.1341,-0.13,-0.1266,-0.1122,-0.1124,-0.1125,-0.1127,-0.1128,0,-0.1465,-0.1403,-0.134,-0.1313,-0.1281,-0.1344,-0.1383,-0.1337,-0.1312,-0.135,-0.1324,-0.1173,-0.1069,-0.1073,-0.094,-0.0921,-0.0928,-0.0895,-0.0904,-0.0938,-0.0969,-0.0912,-0.0629,-0.0628,-0.0627,-0.0626,0,0,-0.1445,-0.1365,-0.1292,-0.1164,-0.1135,-0.1089,-0.1083,-0.1045,-0.104,-0.0976,-0.0935,-0.0997,-0.102,-0.0823,-0.0779,-0.0679,-0.0804,-0.0642,-0.1038,-0.1081,-0.1111,-0.1199,-0.1146,0,0,0,0,0]},{"header":{"parameterUnit":"m.s-1","parameterCategory":2,"la1":30.2991,"la2":30.254,"lo1":-89.0895,"lo2":-89.0444,"dy":0.0017,"dx":0.0017,"nx":28,"ny":28,"refTime":"2024-12-01T03:00:00:Z","depth":"2","parameterNumber":3,"parameterNumberName":"V-component_of_CURRENTS"},"data":[0,0,0,0,0,0,0,0,0,0,0,0,0,0,0,0,0,0,0,0,0,0,0,0,0,0,0,0,0,0,0,0,0,0,0,0,0,0,0,0,0,0,0,0,0,0,0,0,0,0,0,0,0,0,0,0,0,0,0.0113,0.0113,0,0.0147,0.0147,0.0148,0.018,0.018,0.0181,0.0181,0.0255,0.0256,0.0258,0,0,0,0,0,0,0,0,0,0,0,0,0,0.0117,0.0117,0.0113,0.0113,0.0114,0.0147,0.0147,0.0148,0.018,0.018,0.0181,0.0181,0.0254,0.0256,0.0258,0,0,0,0,0,0,0,0,0,0,0,0,0,0.013,0.0117,0.0113,0.0133,0.0136,0.0147,0.0147,0.0148,0.018,0.018,0.0181,0.0181,0.0254,0.0256,0.0258,0.0262,0,0,0.0266,0.0267,0,0,0,0,0,0,0,0,0.0129,0.013,0.013,0.0132,0.0135,0.016,0.0176,0.0188,0.018,0.0163,0.0181,0.0182,0.0226,0.0231,0.0236,0.0265,0.0268,0.0266,0.0267,0.0268,0.0269,0,0,0,0,0,0,0,0.0128,0.0129,0.0126,0.013,0.0133,0.0156,0.0158,0.0178,0.0192,0.0165,0.0167,0.017,0.0228,0.0233,0.0238,0.0269,0.0266,0.0268,0.027,0.027,0.0316,0.0316,0,0,0,0,0,0,0.012,0.0127,0.0125,0.0127,0.0133,0.0155,0.0157,0.0151,0.0191,0.0197,0.017,0.0172,0.0229,0.0235,0.0241,0.025,0.0268,0.0271,0.0272,0.0317,0.0316,0.0316,0,0,0,0,0,0,0.012,0.012,0.0124,0.0129,0.0131,0.0154,0.0147,0.0151,0.0159,0.0194,0.0202,0.0173,0.023,0.0237,0.0252,0.0253,0.0272,0.0274,0.0317,0.0317,0.0316,0.0267,0,0,0,0,0,0,0.012,0.0119,0.0114,0.0128,0.013,0.0122,0.0147,0.0152,0.016,0.0163,0.0199,0.0206,0.0231,0.0248,0.0254,0.0257,0.0276,0.0317,0.0317,0.0316,0.0269,0.0265,0.0261,0,0,0,0,0,0.012,0.0105,0.0113,0.0113,0.0121,0.0122,0.0125,0.0144,0.0159,0.0154,0.0179,0.0205,0.025,0.0249,0.0256,0.026,0.0317,0.0317,0.0316,0.027,0.0266,0.0262,0,0,0,0,0,0,0.0106,0.0107,0.0116,0.0103,0.011,0.0127,0.0126,0.0141,0.0156,0.0162,0.0198,0.0206,0.0221,0.0244,0.0242,0.0272,0.029,0.0291,0.0253,0.0249,0.0245,0.023,0.0278,0,0,0,0,0,0.01,0.0087,0.0097,0.0087,0.0089,0.0108,0.0113,0.0124,0.0139,0.0147,0.0172,0.0201,0.0224,0.0238,0.026,0.0273,0.0299,0.0282,0.0278,0.0275,0.0268,0.0312,0.0312,0.0315,0.0315,0.0315,0,0,0.0092,0.0091,0.0085,0.0083,0.0092,0.0082,0.0112,0.0112,0.0108,0.0153,0.0156,0.0186,0.0223,0.0237,0.0247,0.0258,0.0286,0.0274,0.0271,0.0266,0.0312,0.0312,0.0311,0.0314,0.0314,0.0314,0,0,0.0065,0.0069,0.0049,0.0047,0.0053,0.0064,0.0062,0.0076,0.0088,0.0093,0.0127,0.0156,0.0184,0.0214,0.0233,0.0223,0.0263,0.0234,0.0207,0.025,0.025,0.025,0.0272,0.0275,0.0235,0.0235,0.0235,0,0.0061,0.0029,0.0045,0.0024,0.0019,0.0052,0.003,0.0044,0.0061,0.0073,0.0086,0.0142,0.0175,0.0203,0.0198,0.0216,0.0238,0.0219,0.0245,0.0246,0.0247,0.027,0.0274,0.0232,0.0232,0.0233,0.0233,0,0.0015,-0.0009,-0.0021,-0.0038,-0.0038,-0.0053,-0.0033,-0.0028,-0.0005,0.0017,0.0048,0.0093,0.013,0.0148,0.0168,0.0196,0.0206,0.0233,0.0254,0.0244,0.0269,0.0273,0.0229,0.023,0.023,0.0231,0,0,0.0002,-0.0046,-0.0051,-0.0075,-0.0075,-0.0083,-0.0084,-0.0074,-0.0072,-0.0033,-0.0024,0.003,0.0069,0.0093,0.0135,0.0171,0.0197,0.0198,0.0201,0.0216,0.0276,0.0299,0.0307,0.0229,0.023,0.023,0.0285,0,-0.0038,-0.011,-0.0108,-0.0158,-0.0191,-0.0163,-0.0169,-0.0149,-0.0119,-0.01,-0.003,-0.0005,0.0046,0.0062,0.0109,0.0175,0.0209,0.0179,0.0287,0.0289,0.0309,0.0313,0.0301,0.035,0.029,0.0291,0.0291,0,-0.0083,-0.0129,-0.0197,-0.0236,-0.0242,-0.0255,-0.0253,-0.0251,-0.0203,-0.0179,-0.0125,-0.0072,-0.0009,0.003,0.0148,0.0126,0.0191,0.0244,0.0248,0.0291,0.0322,0.0354,0.0362,0.03,0.0299,0.0299,0.0298,0,-0.0123,-0.0185,-0.0246,-0.0262,-0.0295,-0.0303,-0.0304,-0.0272,-0.0269,-0.0225,-0.0215,-0.0124,-0.0083,0.0017,0.0139,0.014,0.0264,0.0286,0.0367,0.0369,0.039,0.0392,0.0362,0.0362,0.0362,0.0362,0.0362,0,-0.0174,-0.022,-0.0273,-0.0308,-0.0361,-0.0352,-0.0375,-0.0364,-0.0337,-0.0332,-0.0253,-0.0226,-0.0085,0.0009,0.0118,0.0262,0.0258,0.036,0.0389,0.0371,0.0371,0.0356,0.0354,0.0364,0.0364,0.0363,0.0363,0,-0.0211,-0.025,-0.0321,-0.0371,-0.0386,-0.0419,-0.0434,-0.045,-0.0414,-0.0407,-0.0398,-0.0301,-0.0174,-0.0029,0.0133,0.0233,0.0364,0.0413,0.0371,0.0395,0.0439,0.0435,0.0503,0.0504,0.0505,0.0506,0.0507,0,-0.0241,-0.0285,-0.0371,-0.0413,-0.0436,-0.0478,-0.051,-0.0496,-0.0504,-0.0444,-0.0447,-0.0332,-0.023,0.0015,0.0198,0.0391,0.0396,0.0478,0.0487,0.0434,0.0456,0.0449,0.0443,0.0489,0.0489,0.049,0.049,0,-0.0285,-0.0314,-0.0376,-0.047,-0.0522,-0.058,-0.0613,-0.063,-0.06,-0.0566,-0.0492,-0.0402,-0.0171,0.0049,0.0286,0.0397,0.0448,0.0495,0.0465,0.0455,0.0426,0.0446,0.0439,0.0494,0.0494,0.0494,0.0493,0.0493,-0.0304,-0.0363,-0.0442,-0.0525,-0.06,-0.067,-0.0699,-0.0703,-0.0694,-0.061,-0.0517,-0.033,-0.0153,0.0216,0.0363,0.0506,0.0508,0.0554,0.055,0.0547,0.0535,0.0511,0.0591,0.0591,0.0591,0.0591,0.0591,0,-0.0331,-0.041,-0.049,-0.0593,-0.0672,-0.07,-0.0764,-0.0761,-0.0735,-0.0591,-0.0465,-0.0219,0.0034,0.0227,0.0461,0.0583,0.0567,0.0598,0.0556,0.0551,0.0547,0.0534,0.0591,0.0591,0.0591,0.0591,0,0,-0.0348,-0.0444,-0.0494,-0.0628,-0.0697,-0.0797,-0.083,-0.0803,-0.0711,-0.0556,-0.0372,-0.015,0.0081,0.0242,0.0383,0.0501,0.0492,0.0507,0.0498,0.0426,0.0421,0.0515,0.0489,0,0,0,0,0]}],[{"header":{"parameterUnit":"m.s-1","parameterCategory":2,"la1":30.2991,"la2":30.254,"lo1":-89.0895,"lo2":-89.0444,"dy":0.0017,"dx":0.0017,"nx":28,"ny":28,"refTime":"2024-12-01T03:00:00:Z","depth":"4","parameterNumber":2,"parameterNumberName":"U-component_of_CURRENTS"},"data":[0,0,0,0,0,0,0,0,0,0,0,0,0,0,0,0,0,0,0,0,0,0,0,0,0,0,0,0,0,0,0,0,0,0,0,0,0,0,0,0,0,0,0,0,0,0,0,0,0,0,0,0,0,0,0,0,0,0,-0.1058,-0.1059,0,-0.1122,-0.1123,-0.1123,-0.116,-0.116,-0.1161,-0.1161,-0.123,-0.1231,-0.1233,0,0,0,0,0,0,0,0,0,0,0,0,0,-0.0979,-0.098,-0.1058,-0.1059,-0.106,-0.1122,-0.1123,-0.1123,-0.116,-0.116,-0.1161,-0.1161,-0.1229,-0.1231,-0.1233,0,0,0,0,0,0,0,0,0,0,0,0,0,-0.1024,-0.098,-0.1058,-0.1086,-0.1089,-0.1122,-0.1123,-0.1124,-0.116,-0.116,-0.1161,-0.1161,-0.1229,-0.1231,-0.1233,-0.1241,0,0,-0.1241,-0.1242,0,0,0,0,0,0,0,0,-0.1021,-0.1027,-0.1081,-0.1084,-0.1088,-0.1134,-0.112,-0.1164,-0.116,-0.1132,-0.1161,-0.1161,-0.1199,-0.1204,-0.1213,-0.1245,-0.1248,-0.1241,-0.1242,-0.1243,-0.1244,0,0,0,0,0,0,0,-0.1018,-0.1024,-0.1082,-0.1082,-0.1086,-0.11,-0.1106,-0.1129,-0.1162,-0.1135,-0.1138,-0.1146,-0.1201,-0.1211,-0.1215,-0.1249,-0.1241,-0.1243,-0.1245,-0.1245,-0.1344,-0.1345,0,0,0,0,0,0,-0.1012,-0.1021,-0.108,-0.1084,-0.1056,-0.1101,-0.1108,-0.1118,-0.1162,-0.1169,-0.1146,-0.1148,-0.1207,-0.1212,-0.1218,-0.1285,-0.1243,-0.1246,-0.1247,-0.1343,-0.1344,-0.1345,0,0,0,0,0,0,-0.101,-0.1016,-0.1078,-0.1055,-0.1064,-0.1102,-0.1113,-0.1119,-0.1149,-0.1171,-0.1178,-0.1171,-0.1207,-0.1214,-0.1255,-0.1285,-0.1247,-0.1249,-0.1341,-0.1343,-0.1345,-0.1383,0,0,0,0,0,0,-0.1007,-0.1015,-0.1029,-0.1054,-0.1065,-0.111,-0.1113,-0.112,-0.1153,-0.1157,-0.1194,-0.12,-0.1208,-0.1251,-0.1257,-0.1288,-0.1251,-0.134,-0.1342,-0.1344,-0.138,-0.1386,-0.139,0,0,0,0,0,-0.1004,-0.102,-0.1029,-0.1037,-0.108,-0.1111,-0.1118,-0.1145,-0.1154,-0.1173,-0.1197,-0.12,-0.1269,-0.1254,-0.1261,-0.1293,-0.1339,-0.1341,-0.1344,-0.1378,-0.1385,-0.139,0,0,0,0,0,0,-0.0995,-0.1026,-0.1037,-0.1063,-0.1091,-0.1118,-0.1139,-0.1156,-0.119,-0.1197,-0.1214,-0.1222,-0.1268,-0.1274,-0.1257,-0.1327,-0.1305,-0.1309,-0.1328,-0.1335,-0.134,-0.1332,-0.1253,0,0,0,0,0,-0.0998,-0.102,-0.1049,-0.1072,-0.1085,-0.1115,-0.1134,-0.1153,-0.1182,-0.1198,-0.1225,-0.1253,-0.1281,-0.1303,-0.1325,-0.1365,-0.1362,-0.139,-0.1395,-0.1399,-0.1397,-0.1426,-0.1433,-0.1354,-0.1354,-0.1354,0,0,-0.1001,-0.1022,-0.1035,-0.1072,-0.1094,-0.1121,-0.1128,-0.1162,-0.1194,-0.1199,-0.1254,-0.1272,-0.1295,-0.1339,-0.136,-0.1351,-0.1419,-0.1402,-0.1406,-0.1402,-0.143,-0.1437,-0.1444,-0.1356,-0.1355,-0.1355,0,0,-0.1009,-0.1035,-0.1052,-0.1079,-0.1117,-0.1138,-0.1151,-0.119,-0.1218,-0.1266,-0.1279,-0.1314,-0.1362,-0.1383,-0.1399,-0.1446,-0.1443,-0.1459,-0.1485,-0.1513,-0.152,-0.1526,-0.1524,-0.1529,-0.1465,-0.1465,-0.1465,0,-0.1011,-0.104,-0.1064,-0.1088,-0.1116,-0.1147,-0.1175,-0.1208,-0.1259,-0.1287,-0.1289,-0.1366,-0.1381,-0.1436,-0.1449,-0.1458,-0.1463,-0.146,-0.152,-0.1525,-0.153,-0.1527,-0.1533,-0.1467,-0.1467,-0.1467,-0.1467,0,-0.1027,-0.106,-0.1074,-0.1117,-0.1148,-0.118,-0.1223,-0.1265,-0.13,-0.1332,-0.1397,-0.142,-0.1464,-0.1479,-0.1478,-0.1531,-0.1518,-0.152,-0.1502,-0.1541,-0.1535,-0.154,-0.1471,-0.147,-0.1469,-0.1469,0,0,-0.1,-0.1071,-0.1077,-0.1109,-0.1169,-0.1196,-0.1253,-0.1313,-0.1359,-0.1407,-0.1465,-0.1508,-0.1522,-0.1539,-0.1551,-0.1574,-0.1608,-0.1564,-0.1564,-0.1558,-0.1655,-0.1523,-0.1516,-0.1626,-0.1628,-0.1629,-0.1632,0,-0.1006,-0.1054,-0.1093,-0.1153,-0.1183,-0.1239,-0.1291,-0.1351,-0.1405,-0.1468,-0.1505,-0.1559,-0.1547,-0.1572,-0.1595,-0.161,-0.1624,-0.1605,-0.1621,-0.1621,-0.1497,-0.1518,-0.1633,-0.1636,-0.1637,-0.1638,-0.1638,0,-0.1002,-0.104,-0.1093,-0.118,-0.1199,-0.1243,-0.1335,-0.1386,-0.1475,-0.1516,-0.1573,-0.1606,-0.1652,-0.1634,-0.1673,-0.1665,-0.1658,-0.1661,-0.1662,-0.1527,-0.1499,-0.1592,-0.1647,-0.1646,-0.1646,-0.1645,-0.1645,0,-0.0963,-0.1043,-0.1088,-0.1117,-0.1212,-0.1257,-0.1311,-0.1401,-0.145,-0.1547,-0.1589,-0.1653,-0.1685,-0.1703,-0.1695,-0.1698,-0.1722,-0.1728,-0.1602,-0.1592,-0.1693,-0.1687,-0.1749,-0.1749,-0.1749,-0.1749,-0.1749,0,-0.0948,-0.0989,-0.1079,-0.1106,-0.1163,-0.1241,-0.1315,-0.1377,-0.1473,-0.1523,-0.1605,-0.1641,-0.1706,-0.1726,-0.1716,-0.1656,-0.1737,-0.1598,-0.1585,-0.1707,-0.1703,-0.1696,-0.1689,-0.1749,-0.1749,-0.1749,-0.1749,0,-0.0896,-0.0958,-0.1014,-0.1116,-0.1145,-0.1186,-0.1296,-0.1348,-0.1446,-0.1515,-0.1546,-0.1643,-0.1659,-0.1691,-0.1715,-0.1661,-0.1634,-0.1591,-0.1699,-0.1694,-0.1482,-0.1478,-0.1461,-0.1456,-0.1452,-0.1449,-0.1446,0,-0.0873,-0.0895,-0.0995,-0.1024,-0.1072,-0.1146,-0.1191,-0.1308,-0.1357,-0.1491,-0.1506,-0.1574,-0.1615,-0.1538,-0.1584,-0.1552,-0.1531,-0.151,-0.1508,-0.1463,-0.1454,-0.1456,-0.1457,-0.144,-0.1439,-0.1438,-0.1437,0,-0.0814,-0.0856,-0.09,-0.0956,-0.101,-0.1064,-0.114,-0.1165,-0.1294,-0.1399,-0.1423,-0.1438,-0.1449,-0.1453,-0.1429,-0.141,-0.1526,-0.1469,-0.1478,-0.1476,-0.1438,-0.1433,-0.1439,-0.1424,-0.1426,-0.1427,-0.1428,0,-0.0762,-0.0769,-0.0826,-0.0869,-0.0934,-0.0963,-0.102,-0.1074,-0.1132,-0.1282,-0.1278,-0.1349,-0.1428,-0.1377,-0.1358,-0.1323,-0.131,-0.1274,-0.1292,-0.1308,-0.1254,-0.1183,-0.1073,0,0,0,0,0,-0.0691,-0.0686,-0.073,-0.0779,-0.0851,-0.0881,-0.0975,-0.1041,-0.116,-0.1136,-0.1207,-0.1208,-0.12,-0.1237,-0.1167,-0.1286,-0.1311,-0.12,-0.1279,-0.1349,-0.1364,-0.1314,0,0,0,0,0,0,-0.0641,-0.0664,-0.0689,-0.0695,-0.0715,-0.0776,-0.0828,-0.0915,-0.0911,-0.1034,-0.1028,-0.1121,-0.112,-0.1209,-0.1136,-0.1144,-0.1166,-0.1245,-0.1241,-0.134,-0.1354,-0.1367,-0.1321,0,0,0,0,0]},{"header":{"parameterUnit":"m.s-1","parameterCategory":2,"la1":30.2991,"la2":30.254,"lo1":-89.0895,"lo2":-89.0444,"dy":0.0017,"dx":0.0017,"nx":28,"ny":28,"refTime":"2024-12-01T03:00:00:Z","depth":"4","parameterNumber":3,"parameterNumberName":"V-component_of_CURRENTS"},"data":[0,0,0,0,0,0,0,0,0,0,0,0,0,0,0,0,0,0,0,0,0,0,0,0,0,0,0,0,0,0,0,0,0,0,0,0,0,0,0,0,0,0,0,0,0,0,0,0,0,0,0,0,0,0,0,0,0,0,0.0062,0.0062,0,0.0084,0.0084,0.0085,0.011,0.0111,0.0111,0.0111,0.0165,0.0166,0.0167,0,0,0,0,0,0,0,0,0,0,0,0,0,0.0065,0.0065,0.0062,0.0062,0.0062,0.0084,0.0084,0.0085,0.011,0.0111,0.0111,0.0111,0.0165,0.0166,0.0167,0,0,0,0,0,0,0,0,0,0,0,0,0,0.0075,0.0065,0.0062,0.0076,0.0078,0.0084,0.0084,0.0085,0.011,0.0111,0.0111,0.0111,0.0164,0.0166,0.0168,0.0172,0,0,0.0173,0.0174,0,0,0,0,0,0,0,0,0.0074,0.0075,0.0074,0.0075,0.0077,0.0093,0.0105,0.0115,0.011,0.01,0.0111,0.0111,0.0143,0.0146,0.0152,0.0174,0.0177,0.0173,0.0174,0.0175,0.0176,0,0,0,0,0,0,0,0.0074,0.0074,0.0072,0.0074,0.0076,0.009,0.0091,0.0107,0.0121,0.0101,0.0102,0.0102,0.0144,0.015,0.0153,0.0177,0.0173,0.0175,0.0176,0.0177,0.0215,0.0215,0,0,0,0,0,0,0.0066,0.0073,0.0072,0.0073,0.0074,0.0089,0.0091,0.0089,0.012,0.0124,0.0101,0.0103,0.0146,0.0151,0.0155,0.0165,0.0175,0.0177,0.0178,0.0215,0.0215,0.0215,0,0,0,0,0,0,0.0066,0.0065,0.0071,0.0072,0.0074,0.0088,0.0086,0.0089,0.0097,0.012,0.0125,0.0106,0.0147,0.0152,0.0166,0.0168,0.0178,0.0179,0.0215,0.0215,0.0215,0.0184,0,0,0,0,0,0,0.0066,0.0065,0.0063,0.0072,0.0073,0.007,0.0086,0.0089,0.0095,0.0098,0.0126,0.0131,0.0148,0.0163,0.0168,0.017,0.0181,0.0215,0.0215,0.0215,0.0185,0.0183,0.0181,0,0,0,0,0,0.0066,0.0059,0.0062,0.0062,0.0069,0.007,0.0072,0.0085,0.0095,0.0095,0.0113,0.013,0.0166,0.0164,0.017,0.0173,0.0215,0.0215,0.0215,0.0186,0.0183,0.0181,0,0,0,0,0,0,0.0062,0.0061,0.0065,0.0059,0.0062,0.0073,0.0074,0.0083,0.0098,0.0102,0.0127,0.0133,0.0145,0.0163,0.016,0.0184,0.0194,0.0195,0.0171,0.0168,0.0166,0.0156,0.0182,0,0,0,0,0,0.0058,0.0052,0.0055,0.0051,0.0051,0.0063,0.0066,0.0074,0.0086,0.0093,0.0111,0.0132,0.0148,0.016,0.0174,0.0188,0.0212,0.0194,0.0192,0.019,0.0186,0.0234,0.0236,0.0214,0.0214,0.0214,0,0,0.0055,0.0054,0.0051,0.0049,0.0054,0.0046,0.0066,0.0067,0.0064,0.0096,0.0101,0.0122,0.0148,0.016,0.0168,0.0177,0.0206,0.019,0.0188,0.0185,0.0234,0.0236,0.0238,0.0214,0.0214,0.0214,0,0,0.0041,0.0045,0.0032,0.0029,0.003,0.0037,0.0036,0.0045,0.0054,0.0059,0.0082,0.0106,0.0125,0.0149,0.0163,0.016,0.0189,0.0163,0.015,0.0196,0.0199,0.0201,0.0221,0.0225,0.0167,0.0167,0.0167,0,0.0039,0.002,0.003,0.0015,0.0007,0.0029,0.0012,0.0024,0.0037,0.0046,0.0055,0.0098,0.0121,0.0147,0.0143,0.0156,0.0176,0.0157,0.0194,0.0197,0.02,0.022,0.0225,0.0166,0.0166,0.0166,0.0166,0,0.001,-0.0005,-0.0012,-0.0026,-0.0029,-0.004,-0.0029,-0.0023,-0.0008,0.0008,0.0034,0.007,0.0099,0.0111,0.0124,0.0156,0.016,0.0182,0.02,0.02,0.0221,0.0227,0.0164,0.0164,0.0165,0.0165,0,0,0.0005,-0.0028,-0.003,-0.0051,-0.0055,-0.0063,-0.0062,-0.0055,-0.0052,-0.0021,-0.0009,0.003,0.0061,0.0078,0.011,0.0149,0.0184,0.0169,0.0172,0.0186,0.0267,0.0245,0.025,0.0214,0.0216,0.0216,0.0268,0,-0.002,-0.0066,-0.007,-0.0108,-0.0132,-0.0117,-0.0123,-0.0109,-0.0084,-0.0065,-0.0007,0.0015,0.0046,0.0062,0.0108,0.0164,0.02,0.0167,0.0265,0.0268,0.0249,0.0257,0.022,0.0273,0.0274,0.0275,0.0276,0,-0.0048,-0.0077,-0.0126,-0.016,-0.0168,-0.0182,-0.0183,-0.0183,-0.0141,-0.012,-0.0072,-0.0029,0.003,0.0058,0.0164,0.014,0.0195,0.0242,0.0246,0.0242,0.0258,0.0277,0.0287,0.0286,0.0286,0.0285,0.0284,0,-0.0068,-0.0114,-0.0158,-0.0172,-0.0203,-0.0215,-0.0221,-0.0197,-0.0195,-0.0148,-0.0135,-0.0055,-0.0015,0.0073,0.0167,0.0169,0.028,0.0301,0.0333,0.0332,0.0349,0.0346,0.0376,0.0376,0.0376,0.0376,0.0375,0,-0.0098,-0.0131,-0.0173,-0.02,-0.0244,-0.0247,-0.0271,-0.0261,-0.0238,-0.0232,-0.0163,-0.0135,-0.0007,0.0072,0.0159,0.0258,0.028,0.0327,0.0348,0.0332,0.0327,0.0352,0.0349,0.0377,0.0377,0.0377,0.0376,0,-0.0113,-0.0143,-0.0198,-0.0244,-0.0259,-0.0288,-0.0316,-0.0327,-0.03,-0.0287,-0.0273,-0.0187,-0.0082,0.0037,0.018,0.024,0.0341,0.0371,0.0324,0.0342,0.0361,0.0355,0.0412,0.0412,0.0412,0.0411,0.0411,0,-0.0124,-0.0156,-0.0231,-0.027,-0.0294,-0.0335,-0.0362,-0.0358,-0.0361,-0.0316,-0.0309,-0.0213,-0.0142,0.0038,0.0161,0.032,0.0343,0.0383,0.0389,0.0352,0.0367,0.0362,0.0357,0.0411,0.0411,0.0411,0.0411,0,-0.0142,-0.0172,-0.022,-0.0302,-0.035,-0.04,-0.043,-0.0437,-0.0419,-0.0397,-0.0328,-0.0228,-0.0114,0.0033,0.0152,0.0268,0.0352,0.0381,0.0383,0.0389,0.0352,0.0366,0.0361,0.041,0.041,0.041,0.041,0,-0.0146,-0.0188,-0.0256,-0.0327,-0.0396,-0.0446,-0.0461,-0.0458,-0.0455,-0.0393,-0.037,-0.0239,-0.0155,0.0005,0.0117,0.0225,0.0256,0.0285,0.0293,0.0295,0.0246,0.0181,0.0204,0,0,0,0,0,-0.0141,-0.0194,-0.0274,-0.036,-0.0431,-0.0466,-0.0499,-0.0501,-0.0479,-0.0435,-0.0398,-0.0287,-0.0111,-0.0034,0.0073,0.0107,0.0265,0.0233,0.0299,0.0407,0.0408,0.0369,0,0,0,0,0,0,-0.0145,-0.021,-0.0271,-0.0371,-0.0432,-0.0502,-0.0524,-0.0512,-0.0477,-0.0436,-0.0338,-0.0274,-0.0101,-0.0168,0.0072,0.0105,0.0157,0.0322,0.0324,0.0406,0.0407,0.0408,0.0368,0,0,0,0,0]}]]